When you browse on this site, cookies collect data to enhance your experience and personalize the content and advertising you see.
Visit our Privacy Policy to learn more. By continuing to use the site, you agree to this use of cookies and data.
  • In Czech Republic
  • List of Countries
  • For 7 days
  • Water Temperature
  • Weather Map
  • Weather Widgets
  • user-avatar
    Login

    Hourly Weather Magan

    Today, 27 May, Wednesday

    Time Temperature Precipitation Wind Pressure Humidity
    00:00 +17°C° 0.1 mm 2 mps 727 mmHg 62%
    01:00 +16°C° 0 mm 2 mps 726 mmHg 66%
    02:00 +15°C° 0 mm 2 mps 726 mmHg 70%
    03:00 +14°C° 0 mm 1 mps 726 mmHg 75%
    04:00 +16°C° 0 mm 1 mps 726 mmHg 71%
    05:00 +18°C° 0 mm 1 mps 726 mmHg 66%
    06:00 +19°C° 0 mm 1 mps 726 mmHg 62%
    07:00 +21°C° 0 mm 1 mps 725 mmHg 55%
    08:00 +23°C° 0 mm 2 mps 725 mmHg 48%
    09:00 +26°C° 0 mm 2 mps 725 mmHg 36%
    10:00 +27°C° 0 mm 2 mps 725 mmHg 33%
    11:00 +28°C° 0 mm 3 mps 725 mmHg 29%
    12:00 +29°C° 0 mm 4 mps 724 mmHg 26%
    13:00 +29°C° 0 mm 4 mps 724 mmHg 26%
    14:00 +29°C° 0 mm 4 mps 724 mmHg 27%
    15:00 +29°C° 0 mm 4 mps 723 mmHg 27%
    16:00 +28°C° 0 mm 3 mps 723 mmHg 30%
    17:00 +27°C° 0 mm 3 mps 723 mmHg 33%
    18:00 +26°C° 0 mm 3 mps 723 mmHg 36%
    19:00 +22°C° 0.1 mm 3 mps 723 mmHg 48%
    20:00 +19°C° 0.1 mm 2 mps 723 mmHg 61%
    21:00 +17°C° 0.1 mm 2 mps 723 mmHg 73%
    22:00 +16°C° 0.1 mm 2 mps 722 mmHg 76%
    23:00 +15°C° 0.1 mm 2 mps 721 mmHg 79%

    Tomorrow, 28 May, Thursday

    Time Temperature Precipitation Wind Pressure Humidity
    00:00 +14°C° 0.1 mm 2 mps 721 mmHg 83%
    01:00 +14°C° 0 mm 3 mps 720 mmHg 80%
    02:00 +14°C° 0 mm 3 mps 720 mmHg 77%
    03:00 +14°C° 0 mm 3 mps 720 mmHg 74%
    04:00 +15°C° 0 mm 4 mps 720 mmHg 71%
    05:00 +17°C° 0 mm 4 mps 720 mmHg 67%
    06:00 +17°C° 0 mm 4 mps 720 mmHg 64%
    07:00 +18°C° 0 mm 4 mps 721 mmHg 61%
    08:00 +19°C° 0 mm 5 mps 722 mmHg 58%
    09:00 +20°C° 0 mm 5 mps 722 mmHg 55%
    10:00 +20°C° 0 mm 5 mps 722 mmHg 54%
    11:00 +19°C° 0 mm 5 mps 723 mmHg 53%
    12:00 +19°C° 0 mm 5 mps 723 mmHg 52%
    13:00 +19°C° 0 mm 5 mps 723 mmHg 51%
    14:00 +17°C° 0 mm 5 mps 724 mmHg 50%
    15:00 +16°C° 0 mm 6 mps 724 mmHg 49%
    16:00 +15°C° 0 mm 6 mps 725 mmHg 50%
    17:00 +14°C° 0 mm 6 mps 725 mmHg 52%
    18:00 +11°C° 0 mm 6 mps 726 mmHg 53%
    19:00 +9°C° 0 mm 7 mps 727 mmHg 60%
    20:00 +5°C° 0 mm 7 mps 728 mmHg 67%
    21:00 +3°C° 0 mm 7 mps 728 mmHg 75%
    22:00 +3°C° 0 mm 6 mps 729 mmHg 72%
    23:00 +2°C° 0 mm 6 mps 730 mmHg 68%

    Day after tomorrow, 29 May, Friday

    Time Temperature Precipitation Wind Pressure Humidity
    00:00 +2°C° 0 mm 5 mps 730 mmHg 65%
    01:00 +1°C° 0 mm 5 mps 730 mmHg 69%
    02:00 0°C° 0 mm 5 mps 731 mmHg 74%
    03:00 0°C° 0 mm 4 mps 731 mmHg 78%
    04:00 0°C° 0 mm 5 mps 731 mmHg 74%
    05:00 0°C° 0 mm 5 mps 732 mmHg 70%
    06:00 +1°C° 0 mm 6 mps 732 mmHg 66%
    07:00 +2°C° 0 mm 6 mps 733 mmHg 61%
    08:00 +3°C° 0 mm 6 mps 733 mmHg 57%
    09:00 +4°C° 0 mm 6 mps 733 mmHg 52%
    10:00 +4°C° 0 mm 6 mps 733 mmHg 49%
    11:00 +5°C° 0 mm 7 mps 734 mmHg 45%
    12:00 +6°C° 0 mm 7 mps 734 mmHg 41%
    13:00 +8°C° 0 mm 7 mps 734 mmHg 39%
    14:00 +8°C° 0 mm 6 mps 734 mmHg 37%
    15:00 +9°C° 0 mm 6 mps 734 mmHg 36%
    16:00 +9°C° 0 mm 6 mps 734 mmHg 35%
    17:00 +9°C° 0 mm 6 mps 734 mmHg 35%
    18:00 +9°C° 0 mm 5 mps 735 mmHg 34%
    19:00 +7°C° 0 mm 4 mps 735 mmHg 39%
    20:00 +7°C° 0 mm 3 mps 735 mmHg 44%
    21:00 +5°C° 0 mm 3 mps 735 mmHg 49%
    22:00 +4°C° 0 mm 3 mps 736 mmHg 54%
    23:00 +3°C° 0 mm 3 mps 736 mmHg 58%

    30 May, Saturday

    Time Temperature Precipitation Wind Pressure Humidity
    00:00 +2°C° 0 mm 3 mps 736 mmHg 62%
    01:00 +2°C° 0 mm 3 mps 736 mmHg 64%
    02:00 +1°C° 0 mm 3 mps 736 mmHg 66%
    03:00 +1°C° 0 mm 3 mps 736 mmHg 68%
    04:00 +2°C° 0 mm 3 mps 736 mmHg 64%
    05:00 +3°C° 0 mm 3 mps 736 mmHg 59%
    06:00 +5°C° 0 mm 3 mps 736 mmHg 55%
    07:00 +6°C° 0 mm 4 mps 736 mmHg 51%
    08:00 +7°C° 0 mm 4 mps 736 mmHg 47%
    09:00 +10°C° 0 mm 4 mps 736 mmHg 44%
    10:00 +10°C° 0.3 mm 4 mps 736 mmHg 44%
    11:00 +10°C° 0.3 mm 5 mps 736 mmHg 44%
    12:00 +10°C° 0.3 mm 5 mps 735 mmHg 45%
    13:00 +11°C° 0.3 mm 4 mps 735 mmHg 44%
    14:00 +12°C° 0.3 mm 4 mps 735 mmHg 44%
    15:00 +12°C° 0.3 mm 4 mps 735 mmHg 44%
    16:00 +12°C° 0.2 mm 3 mps 735 mmHg 46%
    17:00 +12°C° 0.2 mm 3 mps 735 mmHg 48%
    18:00 +11°C° 0.2 mm 3 mps 735 mmHg 51%
    19:00 +10°C° 0 mm 2 mps 735 mmHg 56%
    20:00 +9°C° 0 mm 2 mps 735 mmHg 61%
    21:00 +9°C° 0 mm 1 mps 735 mmHg 67%
    22:00 +8°C° 0 mm 1 mps 736 mmHg 69%
    23:00 +7°C° 0 mm 1 mps 736 mmHg 71%

    31 May, Sunday

    Time Temperature Precipitation Wind Pressure Humidity
    00:00 +6°C° 0 mm 1 mps 736 mmHg 72%
    01:00 +6°C° 0 mm 1 mps 736 mmHg 76%
    02:00 +5°C° 0 mm 1 mps 736 mmHg 80%
    03:00 +5°C° 0 mm 1 mps 736 mmHg 84%
    04:00 +6°C° 0 mm 1 mps 736 mmHg 79%
    05:00 +7°C° 0 mm 1 mps 736 mmHg 74%
    06:00 +8°C° 0 mm 1 mps 736 mmHg 69%
    07:00 +10°C° 0.1 mm 1 mps 736 mmHg 61%
    08:00 +12°C° 0.1 mm 1 mps 736 mmHg 54%
    09:00 +14°C° 0.1 mm 1 mps 736 mmHg 47%
    10:00 +15°C° 0.1 mm 1 mps 736 mmHg 42%
    11:00 +16°C° 0.1 mm 2 mps 735 mmHg 37%
    12:00 +16°C° 0.1 mm 2 mps 735 mmHg 32%
    13:00 +17°C° 0 mm 2 mps 735 mmHg 31%
    14:00 +17°C° 0 mm 2 mps 735 mmHg 31%
    15:00 +17°C° 0 mm 3 mps 735 mmHg 31%
    16:00 +17°C° 0 mm 2 mps 735 mmHg 32%
    17:00 +17°C° 0 mm 2 mps 735 mmHg 34%
    18:00 +16°C° 0 mm 2 mps 735 mmHg 35%
    19:00 +14°C° 0.1 mm 2 mps 735 mmHg 50%
    20:00 +12°C° 0.1 mm 1 mps 735 mmHg 64%
    21:00 +10°C° 0.1 mm 1 mps 735 mmHg 78%
    22:00 +9°C° 0 mm 1 mps 735 mmHg 81%
    23:00 +8°C° 0 mm 1 mps 735 mmHg 83%

    1 June, Monday

    Time Temperature Precipitation Wind Pressure Humidity
    00:00 +7°C° 0 mm 1 mps 735 mmHg 86%
    01:00 +7°C° 0 mm 1 mps 735 mmHg 87%
    02:00 +6°C° 0 mm 1 mps 735 mmHg 88%
    03:00 +6°C° 0 mm 1 mps 735 mmHg 89%
    04:00 +8°C° 0 mm 1 mps 735 mmHg 84%
    05:00 +9°C° 0 mm 1 mps 735 mmHg 79%
    06:00 +11°C° 0 mm 1 mps 735 mmHg 73%
    07:00 +13°C° 0 mm 1 mps 735 mmHg 64%
    08:00 +15°C° 0 mm 1 mps 735 mmHg 55%
    09:00 +17°C° 0 mm 0 mps 735 mmHg 46%
    10:00 +19°C° 0 mm 1 mps 734 mmHg 44%
    11:00 +20°C° 0 mm 1 mps 734 mmHg 41%
    12:00 +20°C° 0 mm 1 mps 734 mmHg 39%
    13:00 +20°C° 0 mm 1 mps 733 mmHg 38%
    14:00 +19°C° 0 mm 2 mps 733 mmHg 38%
    15:00 +19°C° 0 mm 2 mps 733 mmHg 37%
    16:00 +20°C° 0 mm 1 mps 733 mmHg 40%
    17:00 +20°C° 0 mm 1 mps 733 mmHg 43%
    18:00 +19°C° 0 mm 1 mps 733 mmHg 46%
    19:00 +18°C° 0.2 mm 1 mps 733 mmHg 57%
    20:00 +15°C° 0.2 mm 2 mps 733 mmHg 68%
    21:00 +13°C° 0.2 mm 2 mps 733 mmHg 78%
    22:00 +12°C° 0 mm 2 mps 733 mmHg 82%
    23:00 +10°C° 0 mm 2 mps 733 mmHg 85%
    Show more